Location: Binningen
(47.7924°N, 8.7261°E)
Time: 09:16:34
(UTC+00:00)

ERS-2 - Pass Details

Date: 17 May 2021
Orbit: 491 x 496 km, 98.5° (Epoch: 16 June)

Event Time Altitude Azimuth Distance (km) Brightness Sun altitude
Rises 19:42:30 0° 7° (N) 2,584 6.2 -6.8°
Reaches altitude 10° 19:44:41 10° 359° (N) 1,696 5.4 -7.1°
Maximum altitude 19:48:02 36° 291° (WNW) 795 3.9 -7.5°
Drops below altitude 10° 19:51:22 10° 224° (SW) 1,682 4.9 -7.9°
Sets 19:53:32 0° 216° (SW) 2,560 5.7 -8.2°
